Orbital elements:
2020 MP1                                                 Earth MOID = 0.0027 AU
Epoch 2020 June 22.0 TT = JDT 2459022.5                 Bell                    
M 358.64837              (2000.0)            P               Q                  
n   0.34356025     Peri.  180.46398     +0.08271034     +0.98981936             
a   2.0189897      Node    94.28353     -0.91396387     +0.12167371             
e   0.4951599      Incl.    6.67023     -0.39727705     -0.07384541             
P   2.87           H   25.84          G   0.15           U   7                  
Residuals in seconds of arc
200621 T08  0.0+  0.1+    200622 L01  0.1-  0.3-    200622 104  0.0-  0.1-
200621 T08  0.4+  0.5-    200622 595  0.1-  0.0+    200622 958  0.2+  0.1-
200621 T08  0.3+  0.2+    200622 L01  0.2-  0.1-    200622 G34  0.1-  0.3-
200621 T08  0.2-  0.0-    200622 L01  0.1+  0.3-    200622 C43  0.1+  0.1-
200621 N88  0.6+  0.4-    200622 L01  0.1-  0.0+    200622 G34  0.4+  0.1+
200621 N88  1.5-  0.0+    200622 L01  0.2-  0.1+    200622 104  0.0-  0.0-
200621 N88  0.1+  0.2-    200622 K38  0.0+  0.3-    200622 K63  0.6-  0.8+
200621 J95  0.1+  0.1+    200622 160  0.1+  0.5-    200622 C43  0.1-  0.0+
200621 J95  0.0+  0.2-    200622 160  0.4+  0.4-    200622 C43  0.1+  0.2+
200621 J95  0.1+  0.3-    200622 160  0.4+  0.1-    200622 104  0.0+  0.1+
200622 J95  0.2+  0.0-    200622 160  0.3+  0.1+    200622 C43  0.1-  0.0+
200622 H21  0.0-  0.0+    200622 K38  0.2+  0.1-    200622 K63  0.2+  0.1+
200622 H21  0.1-  0.1+    200622 160  0.3-  0.1+    200622 204  0.1+  0.1-
200622 H21  0.0-  0.0+    200622 K38  0.2-  0.1-    200622 K63  0.7+  0.8+
200622 U55  0.5-  0.8+    200622 958  0.4+  0.1-    200622 204  0.0-  0.1+
200622 U55  1.0+  0.3+    200622 203  0.3-  0.2-    200622 204  0.0-  0.1+
200622 U55  0.4+  0.1+    200622 I93  0.1+  0.0-    200622 204  0.1-  0.1+
200622 595  0.6-  0.2+    200622 958  0.3-  0.1-    200622 204  0.0+  0.0+
200622 L39  0.2-  0.5+    200622 I93  0.3+  0.1-    200622 Z80  0.1-  0.1-
200622 595  0.5-  0.0-    200622 K38  0.2+  0.6-    200622 Z80  0.6-  0.6+
200622 L39  0.6+  0.1+    200622 203  0.1+  0.1+    200622 Z80  0.4-  0.1-
200622 595  0.0-  0.2-    200622 I93  0.1+  0.0+    200622 J95  0.2-  0.2-
200622 L39  0.1-  1.0-    200622 G34  0.2+  0.1+    200622 J95  0.2+  0.0-
200622 L01  0.3-  0.1+    200622 G34  0.3+  0.0-    200622 J95  0.3+  0.0-
200622 L01  0.0-  0.0-    200622 203  0.1-  0.2-    200622 J95  0.1-  0.1-

Ephemeris:
2020 MP1                 a,e,i = 2.02, 0.50, 7                   q = 1.0193
Date    TT    R. A. (2000) Decl.     Delta      r    Elong.  Phase     V
2020 05 24    13 33 26.4 +25 31 25   0.1394  1.0912   121.0    52.7    23.7
...
2020 06 08    13 31 50.0 +26 43 24   0.07571 1.0415   108.5    67.6    22.7
...
2020 06 16    13 39 23.8 +26 50 44   0.04067 1.0262   103.5    74.3    21.5
...
2020 06 22    14 15 17.5 +25 56 54   0.01417 1.0204   106.0    73.3    19.2
2020 06 23    14 39 59.0 +24 56 10   0.0098481.0199   110.2    69.2    18.3
2020 06 24    15 39 21.4 +21 21 24   0.0057561.0195   121.9    57.8    16.8
...
2020 06 30    00 50 03.5 -27 25 13   0.02223 1.0199    97.7    81.1    20.5
...
2020 07 08    01 11 46.6 -27 23 23   0.05753 1.0279    99.7    77.2    22.4
...
2020 07 23    01 14 46.6 -27 40 57   0.1212  1.0654   111.0    62.9    23.6

M. P. C. Staff               (C) Copyright 2020 MPC           M.P.E.C. 2020-M75




More information about the Iaude mailing list